Location: Colle Santa Colomba
(42.0333°N, 12.5667°E)
Time: 03:39:42
(UTC+00:00)

CZ-2D R/B - Pass Details

Date: 25 October 2021
Orbit: 519 x 536 km, 97.4° (Epoch: 28 November)

Event Time Altitude Azimuth Distance (km) Brightness Sun altitude
Rises 17:03:08 0° 168° (SSE) 2,661 6.8 -10.0°
Reaches altitude 10° 17:05:14 10° 169° (S) 1,779 5.9 -10.3°
Maximum altitude 17:09:05 84° 259° (W) 544 3.3 -11.0°
Drops below altitude 10° 17:12:59 10° 347° (NNW) 1,801 6.0 -11.8°
Sets 17:15:07 0° 348° (NNW) 2,698 6.9 -12.2°
